Retour au catalogue

STARLINK-37559

ActifCommunicationsVLEO
NORAD 100295·PAYLOAD·🇺🇸 United States

Lancé Aug 11, 2026 depuis Cape Canaveral Space Force Station

Loading…

Prochains Passages (prochaines 24 heures)

TLE

PériméSource: Space-Track

Époque: Sep 7, 2026, 17:11 UTC

1 A0295U 26183Z   26250.71624774 -.00938747  00000-0 -71822-2 0  9991
2 A0295  53.1598 319.8197 0002073 158.5979 201.5128 15.74101414  4307

Suivez STARLINK-37559 en temps réel avec AllMySat

Download on the App Store